Year,Month,Day,Hour,Minute,Value (Times are PST for windgust in km/hr)
2010,04,26,00,00,12.90
2010,04,26,00,01,14.50
2010,04,26,00,02,14.50
2010,04,26,00,03,9.60
2010,04,26,00,04,12.90
2010,04,26,00,05,16.10
2010,04,26,00,06,14.50
2010,04,26,00,07,14.50
2010,04,26,00,08,11.30
2010,04,26,00,09,14.50
2010,04,26,00,10,11.30
2010,04,26,00,11,9.60
2010,04,26,00,12,9.60
2010,04,26,00,13,14.50
2010,04,26,00,14,14.50
2010,04,26,00,15,14.50
2010,04,26,00,16,11.30
2010,04,26,00,17,9.60
2010,04,26,00,18,9.60
2010,04,26,00,19,14.50
2010,04,26,00,20,14.50
2010,04,26,00,21,9.60
2010,04,26,00,22,12.90
2010,04,26,00,23,9.60
2010,04,26,00,24,9.60
2010,04,26,00,25,16.10
2010,04,26,00,26,11.30
2010,04,26,00,27,14.50
2010,04,26,00,28,9.60
2010,04,26,00,29,11.30
2010,04,26,00,30,16.10
2010,04,26,00,31,14.50
2010,04,26,00,32,11.30
2010,04,26,00,33,14.50
2010,04,26,00,34,17.70
2010,04,26,00,35,11.30
2010,04,26,00,36,9.60
2010,04,26,00,37,9.60
2010,04,26,00,38,14.50
2010,04,26,00,39,14.50
2010,04,26,00,40,12.90
2010,04,26,00,41,17.70
2010,04,26,00,42,12.90
2010,04,26,00,43,14.50
2010,04,26,00,44,16.10
2010,04,26,00,45,16.10
2010,04,26,00,46,12.90
2010,04,26,00,47,11.30
2010,04,26,00,48,14.50
2010,04,26,00,49,17.70
2010,04,26,00,50,14.50
2010,04,26,00,51,11.30
2010,04,26,00,52,16.10
2010,04,26,00,53,14.50
2010,04,26,00,54,14.50
2010,04,26,00,55,14.50
2010,04,26,00,56,16.10
2010,04,26,00,57,14.50
2010,04,26,00,58,16.10
2010,04,26,00,59,11.30
2010,04,26,01,00,16.10
2010,04,26,01,01,16.10
2010,04,26,01,02,17.70
2010,04,26,01,03,20.90
2010,04,26,01,04,16.10
2010,04,26,01,05,19.30
2010,04,26,01,06,19.30
2010,04,26,01,07,14.50
2010,04,26,01,08,12.90
2010,04,26,01,09,14.50
2010,04,26,01,10,19.30
2010,04,26,01,11,16.10
2010,04,26,01,12,16.10
2010,04,26,01,13,16.10
2010,04,26,01,14,16.10
2010,04,26,01,15,16.10
2010,04,26,01,16,12.90
2010,04,26,01,17,9.60
2010,04,26,01,18,16.10
2010,04,26,01,19,17.70
2010,04,26,01,20,11.30
2010,04,26,01,21,16.10
2010,04,26,01,22,14.50
2010,04,26,01,23,16.10
2010,04,26,01,24,16.10
2010,04,26,01,25,14.50
2010,04,26,01,26,19.30
2010,04,26,01,27,16.10
2010,04,26,01,28,17.70
2010,04,26,01,29,16.10
2010,04,26,01,30,12.90
2010,04,26,01,31,14.50
2010,04,26,01,32,20.90
2010,04,26,01,33,16.10
2010,04,26,01,34,14.50
2010,04,26,01,35,17.70
2010,04,26,01,36,16.10
2010,04,26,01,37,14.50
2010,04,26,01,38,17.70
2010,04,26,01,39,17.70
2010,04,26,01,40,17.70
2010,04,26,01,41,16.10
2010,04,26,01,42,16.10
2010,04,26,01,43,14.50
2010,04,26,01,44,17.70
2010,04,26,01,45,17.70
2010,04,26,01,46,17.70
2010,04,26,01,47,14.50
2010,04,26,01,48,16.10
2010,04,26,01,49,17.70
2010,04,26,01,50,12.90
2010,04,26,01,51,16.10
2010,04,26,01,52,11.30
2010,04,26,01,53,14.50
2010,04,26,01,54,16.10
2010,04,26,01,55,12.90
2010,04,26,01,56,16.10
2010,04,26,01,57,16.10
2010,04,26,01,58,14.50
2010,04,26,01,59,17.70
2010,04,26,02,00,16.10
2010,04,26,02,01,11.30
2010,04,26,02,02,9.60
2010,04,26,02,03,12.90
2010,04,26,02,04,17.70
2010,04,26,02,05,14.50
2010,04,26,02,06,14.50
2010,04,26,02,07,17.70
2010,04,26,02,08,17.70
2010,04,26,02,09,16.10
2010,04,26,02,10,17.70
2010,04,26,02,11,12.90
2010,04,26,02,12,17.70
2010,04,26,02,13,9.60
2010,04,26,02,14,17.70
2010,04,26,02,15,16.10
2010,04,26,02,16,11.30
2010,04,26,02,17,14.50
2010,04,26,02,18,17.70
2010,04,26,02,19,14.50
2010,04,26,02,20,14.50
2010,04,26,02,21,19.30
2010,04,26,02,22,19.30
2010,04,26,02,23,17.70
2010,04,26,02,24,17.70
2010,04,26,02,25,17.70
2010,04,26,02,26,17.70
2010,04,26,02,27,17.70
2010,04,26,02,28,19.30
2010,04,26,02,29,14.50
2010,04,26,02,30,17.70
2010,04,26,02,31,16.10
2010,04,26,02,32,14.50
2010,04,26,02,33,16.10
2010,04,26,02,34,17.70
2010,04,26,02,35,16.10
2010,04,26,02,36,16.10
2010,04,26,02,37,16.10
2010,04,26,02,38,17.70
2010,04,26,02,39,14.50
2010,04,26,02,40,17.70
2010,04,26,02,41,19.30
2010,04,26,02,42,17.70
2010,04,26,02,43,17.70
2010,04,26,02,44,14.50
2010,04,26,02,45,19.30
2010,04,26,02,46,19.30
2010,04,26,02,47,16.10
2010,04,26,02,48,16.10
2010,04,26,02,49,19.30
2010,04,26,02,50,16.10
2010,04,26,02,51,17.70
2010,04,26,02,52,20.90
2010,04,26,02,53,16.10
2010,04,26,02,54,19.30
2010,04,26,02,55,16.10
2010,04,26,02,56,19.30
2010,04,26,02,57,17.70
2010,04,26,02,58,16.10
2010,04,26,02,59,17.70
2010,04,26,03,00,16.10
2010,04,26,03,01,20.90
2010,04,26,03,02,24.20
2010,04,26,03,03,17.70
2010,04,26,03,04,14.50
2010,04,26,03,05,17.70
2010,04,26,03,06,19.30
2010,04,26,03,07,19.30
2010,04,26,03,08,19.30
2010,04,26,03,09,14.50
2010,04,26,03,10,16.10
2010,04,26,03,11,16.10
2010,04,26,03,12,16.10
2010,04,26,03,13,17.70
2010,04,26,03,14,20.90
2010,04,26,03,15,19.30
2010,04,26,03,16,14.50
2010,04,26,03,17,17.70
2010,04,26,03,18,19.30
2010,04,26,03,19,16.10
2010,04,26,03,20,16.10
2010,04,26,03,21,17.70
2010,04,26,03,22,20.90
2010,04,26,03,23,11.30
2010,04,26,03,24,19.30
2010,04,26,03,25,22.50
2010,04,26,03,26,20.90
2010,04,26,03,27,17.70
2010,04,26,03,28,19.30
2010,04,26,03,29,19.30
2010,04,26,03,30,16.10
2010,04,26,03,31,22.50
2010,04,26,03,32,19.30
2010,04,26,03,33,16.10
2010,04,26,03,34,16.10
2010,04,26,03,35,19.30
2010,04,26,03,36,17.70
2010,04,26,03,37,22.50
2010,04,26,03,38,16.10
2010,04,26,03,39,17.70
2010,04,26,03,40,19.30
2010,04,26,03,41,20.90
2010,04,26,03,42,19.30
2010,04,26,03,43,20.90
2010,04,26,03,44,20.90
2010,04,26,03,45,19.30
2010,04,26,03,46,17.70
2010,04,26,03,47,17.70
2010,04,26,03,48,16.10
2010,04,26,03,49,16.10
2010,04,26,03,50,16.10
2010,04,26,03,51,14.50
2010,04,26,03,52,19.30
2010,04,26,03,53,17.70
2010,04,26,03,54,17.70
2010,04,26,03,55,16.10
2010,04,26,03,56,17.70
2010,04,26,03,57,16.10
2010,04,26,03,58,16.10
2010,04,26,03,59,16.10
2010,04,26,04,00,16.10
2010,04,26,04,01,19.30
2010,04,26,04,02,17.70
2010,04,26,04,03,17.70
2010,04,26,04,04,16.10
2010,04,26,04,05,14.50
2010,04,26,04,06,16.10
2010,04,26,04,07,22.50
2010,04,26,04,08,16.10
2010,04,26,04,09,17.70
2010,04,26,04,10,14.50
2010,04,26,04,11,17.70
2010,04,26,04,12,17.70
2010,04,26,04,13,17.70
2010,04,26,04,14,16.10
2010,04,26,04,15,19.30
2010,04,26,04,16,17.70
2010,04,26,04,17,20.90
2010,04,26,04,18,16.10
2010,04,26,04,19,16.10
2010,04,26,04,20,16.10
2010,04,26,04,21,14.50
2010,04,26,04,22,11.30
2010,04,26,04,23,14.50
2010,04,26,04,24,17.70
2010,04,26,04,25,19.30
2010,04,26,04,26,22.50
2010,04,26,04,27,19.30
2010,04,26,04,28,16.10
2010,04,26,04,29,16.10
2010,04,26,04,30,17.70
2010,04,26,04,31,12.90
2010,04,26,04,32,14.50
2010,04,26,04,33,16.10
2010,04,26,04,34,22.50
2010,04,26,04,35,16.10
2010,04,26,04,36,17.70
2010,04,26,04,37,17.70
2010,04,26,04,38,19.30
2010,04,26,04,39,17.70
2010,04,26,04,40,16.10
2010,04,26,04,41,9.60
2010,04,26,04,42,9.60
2010,04,26,04,43,8.10
2010,04,26,04,44,16.10
2010,04,26,04,45,12.90
2010,04,26,04,46,12.90
2010,04,26,04,47,11.30
2010,04,26,04,48,20.90
2010,04,26,04,49,16.10
2010,04,26,04,50,16.10
2010,04,26,04,51,14.50
2010,04,26,04,52,16.10
2010,04,26,04,53,14.50
2010,04,26,04,54,19.30
2010,04,26,04,55,17.70
2010,04,26,04,56,17.70
2010,04,26,04,57,20.90
2010,04,26,04,58,14.50
2010,04,26,04,59,16.10
2010,04,26,05,00,17.70
2010,04,26,05,01,12.90
2010,04,26,05,02,22.50
2010,04,26,05,03,17.70
2010,04,26,05,04,19.30
2010,04,26,05,05,16.10
2010,04,26,05,06,17.70
2010,04,26,05,07,17.70
2010,04,26,05,08,16.10
2010,04,26,05,09,16.10
2010,04,26,05,10,16.10
2010,04,26,05,11,12.90
2010,04,26,05,12,19.30
2010,04,26,05,13,11.30
2010,04,26,05,14,17.70
2010,04,26,05,15,14.50
2010,04,26,05,16,17.70
2010,04,26,05,17,17.70
2010,04,26,05,18,19.30
2010,04,26,05,19,16.10
2010,04,26,05,20,17.70
2010,04,26,05,21,11.30
2010,04,26,05,22,14.50
2010,04,26,05,23,17.70
2010,04,26,05,24,14.50
2010,04,26,05,25,17.70
2010,04,26,05,26,19.30
2010,04,26,05,27,11.30
2010,04,26,05,28,16.10
2010,04,26,05,29,19.30
2010,04,26,05,30,17.70
2010,04,26,05,31,14.50
2010,04,26,05,32,16.10
2010,04,26,05,33,19.30
2010,04,26,05,34,17.70
2010,04,26,05,35,19.30
2010,04,26,05,36,16.10
2010,04,26,05,37,19.30
2010,04,26,05,38,19.30
2010,04,26,05,39,16.10
2010,04,26,05,40,16.10
2010,04,26,05,41,17.70
2010,04,26,05,42,16.10
2010,04,26,05,43,16.10
2010,04,26,05,44,14.50
2010,04,26,05,45,16.10
2010,04,26,05,46,16.10
2010,04,26,05,47,9.60
2010,04,26,05,48,9.60
2010,04,26,05,49,14.50
2010,04,26,05,50,11.30
2010,04,26,05,51,16.10
2010,04,26,05,52,17.70
2010,04,26,05,53,11.30
2010,04,26,05,54,17.70
2010,04,26,05,55,16.10
2010,04,26,05,56,14.50
2010,04,26,05,57,17.70
2010,04,26,05,58,19.30
2010,04,26,05,59,19.30
2010,04,26,06,00,24.20
2010,04,26,06,01,16.10
2010,04,26,06,02,17.70
2010,04,26,06,03,14.50
2010,04,26,06,04,14.50
2010,04,26,06,05,9.60
2010,04,26,06,06,19.30
2010,04,26,06,07,16.10
2010,04,26,06,08,6.40
2010,04,26,06,09,9.60
2010,04,26,06,10,11.30
2010,04,26,06,11,16.10
2010,04,26,06,12,16.10
2010,04,26,06,13,16.10
2010,04,26,06,14,17.70
2010,04,26,06,15,17.70
2010,04,26,06,16,17.70
2010,04,26,06,17,16.10
2010,04,26,06,18,24.20
2010,04,26,06,19,17.70
2010,04,26,06,20,16.10
2010,04,26,06,21,11.30
2010,04,26,06,22,20.90
2010,04,26,06,23,19.30
2010,04,26,06,24,19.30
2010,04,26,06,25,20.90
2010,04,26,06,26,19.30
2010,04,26,06,27,22.50
2010,04,26,06,28,19.30
2010,04,26,06,29,20.90
2010,04,26,06,30,22.50
2010,04,26,06,31,24.20
2010,04,26,06,32,20.90
2010,04,26,06,33,25.70
2010,04,26,06,34,20.90
2010,04,26,06,35,25.70
2010,04,26,06,36,19.30
2010,04,26,06,37,20.90
2010,04,26,06,38,16.10
2010,04,26,06,39,22.50
2010,04,26,06,40,17.70
2010,04,26,06,41,19.30
2010,04,26,06,42,22.50
2010,04,26,06,43,19.30
2010,04,26,06,44,20.90
2010,04,26,06,45,22.50
2010,04,26,06,46,25.70
2010,04,26,06,47,27.40
2010,04,26,06,48,19.30
2010,04,26,06,49,22.50
2010,04,26,06,50,22.50
2010,04,26,06,51,20.90
2010,04,26,06,52,24.20
2010,04,26,06,53,27.40
2010,04,26,06,54,27.40
2010,04,26,06,55,24.20
2010,04,26,06,56,27.40
2010,04,26,06,57,24.20
2010,04,26,06,58,20.90
2010,04,26,06,59,17.70
2010,04,26,07,00,19.30
2010,04,26,07,01,24.20
2010,04,26,07,02,20.90
2010,04,26,07,03,20.90
2010,04,26,07,04,24.20
2010,04,26,07,05,25.70
2010,04,26,07,06,29.00
2010,04,26,07,07,17.70
2010,04,26,07,08,17.70
2010,04,26,07,09,11.30
2010,04,26,07,10,11.30
2010,04,26,07,11,16.10
2010,04,26,07,12,16.10
2010,04,26,07,13,22.50
2010,04,26,07,14,24.20
2010,04,26,07,15,20.90
2010,04,26,07,16,20.90
2010,04,26,07,17,25.70
2010,04,26,07,18,24.20
2010,04,26,07,19,27.40
2010,04,26,07,20,25.70
2010,04,26,07,21,22.50
2010,04,26,07,22,17.70
2010,04,26,07,23,22.50
2010,04,26,07,24,24.20
2010,04,26,07,25,22.50
2010,04,26,07,26,22.50
2010,04,26,07,27,25.70
2010,04,26,07,28,19.30
2010,04,26,07,29,19.30
2010,04,26,07,30,25.70
2010,04,26,07,31,16.10
2010,04,26,07,32,20.90
2010,04,26,07,33,19.30
2010,04,26,07,34,16.10
2010,04,26,07,35,8.10
2010,04,26,07,36,19.30
2010,04,26,07,37,19.30
2010,04,26,07,38,20.90
2010,04,26,07,39,20.90
2010,04,26,07,40,22.50
2010,04,26,07,41,29.00
2010,04,26,07,42,27.40
2010,04,26,07,43,29.00
2010,04,26,07,44,22.50
2010,04,26,07,45,20.90
2010,04,26,07,46,22.50
2010,04,26,07,47,24.20
2010,04,26,07,48,14.50
2010,04,26,07,49,20.90
2010,04,26,07,50,17.70
2010,04,26,07,51,19.30
2010,04,26,07,52,16.10
2010,04,26,07,53,9.60
2010,04,26,07,54,16.10
2010,04,26,07,55,9.60
2010,04,26,07,56,6.40
2010,04,26,07,57,8.10
2010,04,26,07,58,11.30
2010,04,26,07,59,11.30
2010,04,26,08,00,14.50
2010,04,26,08,01,16.10
2010,04,26,08,02,16.10
2010,04,26,08,03,14.50
2010,04,26,08,04,19.30
2010,04,26,08,05,17.70
2010,04,26,08,06,17.70
2010,04,26,08,07,17.70
2010,04,26,08,08,14.50
2010,04,26,08,09,19.30
2010,04,26,08,10,19.30
2010,04,26,08,11,20.90
2010,04,26,08,12,20.90
2010,04,26,08,13,19.30
2010,04,26,08,14,19.30
2010,04,26,08,15,20.90
2010,04,26,08,16,22.50
2010,04,26,08,17,22.50
2010,04,26,08,18,29.00
2010,04,26,08,19,25.70
2010,04,26,08,20,22.50
2010,04,26,08,21,19.30
2010,04,26,08,22,9.60
2010,04,26,08,23,11.30
2010,04,26,08,24,11.30
2010,04,26,08,25,19.30
2010,04,26,08,26,20.90
2010,04,26,08,27,25.70
2010,04,26,08,28,22.50
2010,04,26,08,29,24.20
2010,04,26,08,30,17.70
2010,04,26,08,31,20.90
2010,04,26,08,32,16.10
2010,04,26,08,33,16.10
2010,04,26,08,34,14.50
2010,04,26,08,35,8.10
2010,04,26,08,36,8.10
2010,04,26,08,37,17.70
2010,04,26,08,38,17.70
2010,04,26,08,39,14.50
2010,04,26,08,40,19.30
2010,04,26,08,41,19.30
2010,04,26,08,42,11.30
2010,04,26,08,43,16.10
2010,04,26,08,44,17.70
2010,04,26,08,45,16.10
2010,04,26,08,46,17.70
2010,04,26,08,47,16.10
2010,04,26,08,48,16.10
2010,04,26,08,49,8.10
2010,04,26,08,50,9.60
2010,04,26,08,51,19.30
2010,04,26,08,52,17.70
2010,04,26,08,53,19.30
2010,04,26,08,54,20.90
2010,04,26,08,55,24.20
2010,04,26,08,56,22.50
2010,04,26,08,57,20.90
2010,04,26,08,58,16.10
2010,04,26,08,59,16.10
2010,04,26,09,00,16.10
2010,04,26,09,01,20.90
2010,04,26,09,02,17.70
2010,04,26,09,03,22.50
2010,04,26,09,04,17.70
2010,04,26,09,05,20.90
2010,04,26,09,06,14.50
2010,04,26,09,07,16.10
2010,04,26,09,08,16.10
2010,04,26,09,09,16.10
2010,04,26,09,10,20.90
2010,04,26,09,11,16.10
2010,04,26,09,12,19.30
2010,04,26,09,13,14.50
2010,04,26,09,14,16.10
2010,04,26,09,15,19.30
2010,04,26,09,16,22.50
2010,04,26,09,17,24.20
2010,04,26,09,18,20.90
2010,04,26,09,19,20.90
2010,04,26,09,20,24.20
2010,04,26,09,21,24.20
2010,04,26,09,22,27.40
2010,04,26,09,23,22.50
2010,04,26,09,24,19.30
2010,04,26,09,25,19.30
2010,04,26,09,26,17.70
2010,04,26,09,27,17.70
2010,04,26,09,28,16.10
2010,04,26,09,29,16.10
2010,04,26,09,30,17.70
2010,04,26,09,31,11.30
2010,04,26,09,32,17.70
2010,04,26,09,33,16.10
2010,04,26,09,34,9.60
2010,04,26,09,35,16.10
2010,04,26,09,36,16.10
2010,04,26,09,37,25.70
2010,04,26,09,38,19.30
2010,04,26,09,39,9.60
2010,04,26,09,40,11.30
2010,04,26,09,41,16.10
2010,04,26,09,42,11.30
2010,04,26,09,43,14.50
2010,04,26,09,44,12.90
2010,04,26,09,45,11.30
2010,04,26,09,46,16.10
2010,04,26,09,47,16.10
2010,04,26,09,48,16.10
2010,04,26,09,49,8.10
2010,04,26,09,50,12.90
2010,04,26,09,51,8.10
2010,04,26,09,52,14.50
2010,04,26,09,53,14.50
2010,04,26,09,54,16.10
2010,04,26,09,55,11.30
2010,04,26,09,56,11.30
2010,04,26,09,57,11.30
2010,04,26,09,58,9.60
2010,04,26,09,59,9.60
2010,04,26,10,00,9.60
2010,04,26,10,01,9.60
2010,04,26,10,02,8.10
2010,04,26,10,03,11.30
2010,04,26,10,04,8.10
2010,04,26,10,05,8.10
2010,04,26,10,06,8.10
2010,04,26,10,07,9.60
2010,04,26,10,08,8.10
2010,04,26,10,09,3.20
2010,04,26,10,10,4.80
2010,04,26,10,11,20.90
2010,04,26,10,12,9.60
2010,04,26,10,13,8.10
2010,04,26,10,14,4.80
2010,04,26,10,15,6.40
2010,04,26,10,16,9.60
2010,04,26,10,17,8.10
2010,04,26,10,18,9.60
2010,04,26,10,19,6.40
2010,04,26,10,20,4.80
2010,04,26,10,21,6.40
2010,04,26,10,22,4.80
2010,04,26,10,23,8.10
2010,04,26,10,24,6.40
2010,04,26,10,25,6.40
2010,04,26,10,26,3.20
2010,04,26,10,27,8.10
2010,04,26,10,28,6.40
2010,04,26,10,29,9.60
2010,04,26,10,30,6.40
2010,04,26,10,31,8.10
2010,04,26,10,32,9.60
2010,04,26,10,33,8.10
2010,04,26,10,34,4.80
2010,04,26,10,35,8.10
2010,04,26,10,36,9.60
2010,04,26,10,37,9.60
2010,04,26,10,38,9.60
2010,04,26,10,39,11.30
2010,04,26,10,40,6.40
2010,04,26,10,41,4.80
2010,04,26,10,42,4.80
2010,04,26,10,43,4.80
2010,04,26,10,44,1.60
2010,04,26,10,45,3.20
2010,04,26,10,46,6.40
2010,04,26,10,47,9.60
2010,04,26,10,48,9.60
2010,04,26,10,49,11.30
2010,04,26,10,50,8.10
2010,04,26,10,51,11.30
2010,04,26,10,52,9.60
2010,04,26,10,53,4.80
2010,04,26,10,54,8.10
2010,04,26,10,55,8.10
2010,04,26,10,56,6.40
2010,04,26,10,57,8.10
2010,04,26,10,58,11.30
2010,04,26,10,59,8.10
2010,04,26,11,00,14.50
2010,04,26,11,01,22.50
2010,04,26,11,02,17.70
2010,04,26,11,03,12.90
2010,04,26,11,04,9.60
2010,04,26,11,05,8.10
2010,04,26,11,06,16.10
2010,04,26,11,07,16.10
2010,04,26,11,08,11.30
2010,04,26,11,09,8.10
2010,04,26,11,10,8.10
2010,04,26,11,11,20.90
2010,04,26,11,12,22.50
2010,04,26,11,13,16.10
2010,04,26,11,14,19.30
2010,04,26,11,15,12.90
2010,04,26,11,16,9.60
2010,04,26,11,17,8.10
2010,04,26,11,18,12.90
2010,04,26,11,19,14.50
2010,04,26,11,20,11.30
2010,04,26,11,21,11.30
2010,04,26,11,22,17.70
2010,04,26,11,23,12.90
2010,04,26,11,24,9.60
2010,04,26,11,25,8.10
2010,04,26,11,26,4.80
2010,04,26,11,27,4.80
2010,04,26,11,28,3.20
2010,04,26,11,29,14.50
2010,04,26,11,30,16.10
2010,04,26,11,31,14.50
2010,04,26,11,32,8.10
2010,04,26,11,33,16.10
2010,04,26,11,34,14.50
2010,04,26,11,35,16.10
2010,04,26,11,36,14.50
2010,04,26,11,37,8.10
2010,04,26,11,38,9.60
2010,04,26,11,39,16.10
2010,04,26,11,40,16.10
2010,04,26,11,41,17.70
2010,04,26,11,42,14.50
2010,04,26,11,43,11.30
2010,04,26,11,44,14.50
2010,04,26,11,45,14.50
2010,04,26,11,46,16.10
2010,04,26,11,47,17.70
2010,04,26,11,48,11.30
2010,04,26,11,49,16.10
2010,04,26,11,50,11.30
2010,04,26,11,51,11.30
2010,04,26,11,52,9.60
2010,04,26,11,53,11.30
2010,04,26,11,54,9.60
2010,04,26,11,55,16.10
2010,04,26,11,56,19.30
2010,04,26,11,57,19.30
2010,04,26,11,58,14.50
2010,04,26,11,59,24.20
2010,04,26,12,00,16.10
2010,04,26,12,01,20.90
2010,04,26,12,02,19.30
2010,04,26,12,03,19.30
2010,04,26,12,04,8.10
2010,04,26,12,05,8.10
2010,04,26,12,06,19.30
2010,04,26,12,07,16.10
2010,04,26,12,08,16.10
2010,04,26,12,09,17.70
2010,04,26,12,10,11.30
2010,04,26,12,11,17.70
2010,04,26,12,12,8.10
2010,04,26,12,13,16.10
2010,04,26,12,14,12.90
2010,04,26,12,15,17.70
2010,04,26,12,16,19.30
2010,04,26,12,17,14.50
2010,04,26,12,18,22.50
2010,04,26,12,19,22.50
2010,04,26,12,20,19.30
2010,04,26,12,21,24.20
2010,04,26,12,22,22.50
2010,04,26,12,23,19.30
2010,04,26,12,24,16.10
2010,04,26,12,25,8.10
2010,04,26,12,26,22.50
2010,04,26,12,27,17.70
2010,04,26,12,28,14.50
2010,04,26,12,29,9.60
2010,04,26,12,30,12.90
2010,04,26,12,31,16.10
2010,04,26,12,32,8.10
2010,04,26,12,33,4.80
2010,04,26,12,34,8.10
2010,04,26,12,35,9.60
2010,04,26,12,36,9.60
2010,04,26,12,37,11.30
2010,04,26,12,38,6.40
2010,04,26,12,39,3.20
2010,04,26,12,40,9.60
2010,04,26,12,41,20.90
2010,04,26,12,42,22.50
2010,04,26,12,43,22.50
2010,04,26,12,44,20.90
2010,04,26,12,45,19.30
2010,04,26,12,46,22.50
2010,04,26,12,47,22.50
2010,04,26,12,48,25.70
2010,04,26,12,49,25.70
2010,04,26,12,50,25.70
2010,04,26,12,51,24.20
2010,04,26,12,52,30.60
2010,04,26,12,53,30.60
2010,04,26,12,54,29.00
2010,04,26,12,55,32.20
2010,04,26,12,56,32.20
2010,04,26,12,57,27.40
2010,04,26,12,58,24.20
2010,04,26,12,59,25.70
2010,04,26,13,00,27.40
2010,04,26,13,01,27.40
2010,04,26,13,02,27.40
2010,04,26,13,03,30.60
2010,04,26,13,04,20.90
2010,04,26,13,05,25.70
2010,04,26,13,06,22.50
2010,04,26,13,07,33.80
2010,04,26,13,08,25.70
2010,04,26,13,09,27.40
2010,04,26,13,10,40.20
2010,04,26,13,11,41.80
2010,04,26,13,12,32.20
2010,04,26,13,13,35.40
2010,04,26,13,14,22.50
2010,04,26,13,15,33.80
2010,04,26,13,16,35.40
2010,04,26,13,17,32.20
2010,04,26,13,18,32.20
2010,04,26,13,19,38.60
2010,04,26,13,20,27.40
2010,04,26,13,21,38.60
2010,04,26,13,22,27.40
2010,04,26,13,23,38.60
2010,04,26,13,24,30.60
2010,04,26,13,25,35.40
2010,04,26,13,26,30.60
2010,04,26,13,27,30.60
2010,04,26,13,28,32.20
2010,04,26,13,29,24.20
2010,04,26,13,30,27.40
2010,04,26,13,31,41.80
2010,04,26,13,32,33.80
2010,04,26,13,33,41.80
2010,04,26,13,34,40.20
2010,04,26,13,35,30.60
2010,04,26,13,36,33.80
2010,04,26,13,37,27.40
2010,04,26,13,38,38.60
2010,04,26,13,39,29.00
2010,04,26,13,40,35.40
2010,04,26,13,41,32.20
2010,04,26,13,42,29.00
2010,04,26,13,43,33.80
2010,04,26,13,44,29.00
2010,04,26,13,45,35.40
2010,04,26,13,46,24.20
2010,04,26,13,47,40.20
2010,04,26,13,48,38.60
2010,04,26,13,49,30.60
2010,04,26,13,50,30.60
2010,04,26,13,51,24.20
2010,04,26,13,52,35.40
2010,04,26,13,53,33.80
2010,04,26,13,54,30.60
2010,04,26,13,55,37.00
2010,04,26,13,56,32.20
2010,04,26,13,57,27.40
2010,04,26,13,58,25.70
2010,04,26,13,59,24.20
2010,04,26,14,00,27.40
2010,04,26,14,01,24.20
2010,04,26,14,02,24.20
2010,04,26,14,03,24.20
2010,04,26,14,04,24.20
2010,04,26,14,05,40.20
2010,04,26,14,06,38.60
2010,04,26,14,07,20.90
2010,04,26,14,08,29.00
2010,04,26,14,09,20.90
2010,04,26,14,10,24.20
2010,04,26,14,11,32.20
2010,04,26,14,12,24.20
2010,04,26,14,13,29.00
2010,04,26,14,14,22.50
2010,04,26,14,15,38.60
2010,04,26,14,16,32.20
2010,04,26,14,17,27.40
2010,04,26,14,18,27.40
2010,04,26,14,19,24.20
2010,04,26,14,20,27.40
2010,04,26,14,21,29.00
2010,04,26,14,22,24.20
2010,04,26,14,23,25.70
2010,04,26,14,24,27.40
2010,04,26,14,25,25.70
2010,04,26,14,26,27.40
2010,04,26,14,27,37.00
2010,04,26,14,28,37.00
2010,04,26,14,29,33.80
2010,04,26,14,30,40.20
2010,04,26,14,31,41.80
2010,04,26,14,32,46.70
2010,04,26,14,33,40.20
2010,04,26,14,34,37.00
2010,04,26,14,35,45.10
2010,04,26,14,36,45.10
2010,04,26,14,37,51.50
2010,04,26,14,38,38.60
2010,04,26,14,39,40.20
2010,04,26,14,40,32.20
2010,04,26,14,41,41.80
2010,04,26,14,42,41.80
2010,04,26,14,43,24.20
2010,04,26,14,44,41.80
2010,04,26,14,45,35.40
2010,04,26,14,46,37.00
2010,04,26,14,47,40.20
2010,04,26,14,48,37.00
2010,04,26,14,49,37.00
2010,04,26,14,50,38.60
2010,04,26,14,51,43.50
2010,04,26,14,52,37.00
2010,04,26,14,53,41.80
2010,04,26,14,54,32.20
2010,04,26,14,55,40.20
2010,04,26,14,56,41.80
2010,04,26,14,57,41.80
2010,04,26,14,58,35.40
2010,04,26,14,59,30.60
2010,04,26,15,00,32.20
2010,04,26,15,01,32.20
2010,04,26,15,02,41.80
2010,04,26,15,03,40.20
2010,04,26,15,04,48.30
2010,04,26,15,05,32.20
2010,04,26,15,06,45.10
2010,04,26,15,07,40.20
2010,04,26,15,08,35.40
2010,04,26,15,09,37.00
2010,04,26,15,10,43.50
2010,04,26,15,11,48.30
2010,04,26,15,12,43.50
2010,04,26,15,13,48.30
2010,04,26,15,14,48.30
2010,04,26,15,15,41.80
2010,04,26,15,16,54.70
2010,04,26,15,17,49.90
2010,04,26,15,18,43.50
2010,04,26,15,19,54.70
2010,04,26,15,20,40.20
2010,04,26,15,21,45.10
2010,04,26,15,22,51.50
2010,04,26,15,23,41.80
2010,04,26,15,24,48.30
2010,04,26,15,25,49.90
2010,04,26,15,26,38.60
2010,04,26,15,27,37.00
2010,04,26,15,28,40.20
2010,04,26,15,29,43.50
2010,04,26,15,30,43.50
2010,04,26,15,31,35.40
2010,04,26,15,32,40.20
2010,04,26,15,33,40.20
2010,04,26,15,34,40.20
2010,04,26,15,35,45.10
2010,04,26,15,36,40.20
2010,04,26,15,37,53.10
2010,04,26,15,38,49.90
2010,04,26,15,39,45.10
2010,04,26,15,40,29.00
2010,04,26,15,41,37.00
2010,04,26,15,42,45.10
2010,04,26,15,43,40.20
2010,04,26,15,44,53.10
2010,04,26,15,45,54.70
2010,04,26,15,46,59.50
2010,04,26,15,47,59.50
2010,04,26,15,48,53.10
2010,04,26,15,49,46.70
2010,04,26,15,50,41.80
2010,04,26,15,51,41.80
2010,04,26,15,52,41.80
2010,04,26,15,53,43.50
2010,04,26,15,54,40.20
2010,04,26,15,55,43.50
2010,04,26,15,56,45.10
2010,04,26,15,57,46.70
2010,04,26,15,58,54.70
2010,04,26,15,59,74.00
2010,04,26,16,00,53.10
2010,04,26,16,01,48.30
2010,04,26,16,02,48.30
2010,04,26,16,03,53.10
2010,04,26,16,04,46.70
2010,04,26,16,05,53.10
2010,04,26,16,06,41.80
2010,04,26,16,07,56.30
2010,04,26,16,08,40.20
2010,04,26,16,09,46.70
2010,04,26,16,10,41.80
2010,04,26,16,11,51.50
2010,04,26,16,12,46.70
2010,04,26,16,13,46.70
2010,04,26,16,14,46.70
2010,04,26,16,15,45.10
2010,04,26,16,16,51.50
2010,04,26,16,17,54.70
2010,04,26,16,18,41.80
2010,04,26,16,19,48.30
2010,04,26,16,20,53.10
2010,04,26,16,21,46.70
2010,04,26,16,22,48.30
2010,04,26,16,23,41.80
2010,04,26,16,24,32.20
2010,04,26,16,25,38.60
2010,04,26,16,26,45.10
2010,04,26,16,27,53.10
2010,04,26,16,28,53.10
2010,04,26,16,29,53.10
2010,04,26,16,30,53.10
2010,04,26,16,31,51.50
2010,04,26,16,32,53.10
2010,04,26,16,33,61.20
2010,04,26,16,34,53.10
2010,04,26,16,35,46.70
2010,04,26,16,36,51.50
2010,04,26,16,37,37.00
2010,04,26,16,38,64.40
2010,04,26,16,39,61.20
2010,04,26,16,40,48.30
2010,04,26,16,41,57.90
2010,04,26,16,42,57.90
2010,04,26,16,43,48.30
2010,04,26,16,44,46.70
2010,04,26,16,45,46.70
2010,04,26,16,46,41.80
2010,04,26,16,47,62.70
2010,04,26,16,48,51.50
2010,04,26,16,49,57.90
2010,04,26,16,50,46.70
2010,04,26,16,51,40.20
2010,04,26,16,52,61.20
2010,04,26,16,53,54.70
2010,04,26,16,54,48.30
2010,04,26,16,55,53.10
2010,04,26,16,56,48.30
2010,04,26,16,57,64.40
2010,04,26,16,58,32.20
2010,04,26,16,59,45.10
2010,04,26,17,00,49.90
2010,04,26,17,01,64.40
2010,04,26,17,02,43.50
2010,04,26,17,03,51.50
2010,04,26,17,04,53.10
2010,04,26,17,05,64.40
2010,04,26,17,06,46.70
2010,04,26,17,07,43.50
2010,04,26,17,08,56.30
2010,04,26,17,09,53.10
2010,04,26,17,10,54.70
2010,04,26,17,11,62.70
2010,04,26,17,12,53.10
2010,04,26,17,13,41.80
2010,04,26,17,14,56.30
2010,04,26,17,15,53.10
2010,04,26,17,16,48.30
2010,04,26,17,17,59.50
2010,04,26,17,18,43.50
2010,04,26,17,19,53.10
2010,04,26,17,20,49.90
2010,04,26,17,21,57.90
2010,04,26,17,22,56.30
2010,04,26,17,23,53.10
2010,04,26,17,24,53.10